Location: Maccacari
(45.1333°N, 11.1333°E)
Time: 06:53:08
(UTC+00:00)

SJ 16-02 - Pass Details

Date: 18 September 2020
Orbit: 606 x 616 km, 75.0° (Epoch: 30 October)

Event Time Altitude Azimuth Distance (km) Brightness Sun altitude
Rises 17:57:14 0° 212° (SSW) 2,853 5.1 -7.4°
Reaches altitude 10° 17:59:31 10° 218° (SW) 1,952 4.3 -7.7°
Maximum altitude 18:03:45 49° 294° (WNW) 783 2.4 -8.5°
Drops below altitude 10° 18:08:01 10° 10° (N) 1,965 4.0 -9.2°
Sets 18:10:19 0° 16° (NNE) 2,874 4.7 -9.6°
